Find Orbcomm FM116

NORAD ID: 41189 Int'l Des: 2015-081 Owner: ORBC Country: US Constellation: orbcomm operational
LEOCIRCULAR

当前视图

正在加载3D地球...

关于 Orbcomm FM116

正在加载描述...

即将过境

Passes for default location (London). Set your location on the main map for personalized predictions.

高度历史

Loading altitude history...

两行轨道根数

1 41189U 15081L 26149.60486338 .00000925 00000-0 23196-3 0 9998
2 41189 47.0038 358.4811 0001713 329.1896 30.8889 14.58851425556226
Epoch: May 29, 2026 • Age: 12 hours

当前状态

高度 696.8 km
速度 7.51 km/s
星下点 26.12°N, 102.76°E
发射日期 Dec 22, 2015
运行时间 10.4 years
类型 other

技术详情

分类 Payload
质量 172.00 kg
干质量 158.00 kg
总质量 172.00 kg
长度 1.00 m
直径 0.50 m
跨度 13.00 m
形状 Box+pan+ant
制造商 SNVL
平台类型 SN-100A
阶段状态 In Orbit
所有者/国家 ORBC/US

Most Searched